User: anonymous   Login
Location: Bittkow
(50.3000°N, 19.0000°E)
Time: 03:06:01
(UTC+00:00)
Language:

ERS-2 - Orbit

View from above orbital plane
View from above orbital plane
View from above satellite
View from above satellite

Ground track
Ground track

The orbit data is extracted from the following two-line orbital elements,

1 23560U 95021A   20338.44246894  .00002197  00000-0  95909-4 0  9995
2 23560  98.5530 155.2740 0002756 335.3213  24.7888 15.23482136367875
Epoch (UTC): 03 December 2020 10:37:09
Eccentricity: 0.0002756
inclination: 98.5530°
perigee height: 493 km
apogee height: 497 km
right ascension of ascending node: 155.2740°
argument of perigee: 335.3213°
revolutions per day: 15.23482136
mean anomaly at epoch: 24.7888°
orbit number at epoch: 36787

The dashed part of the orbit path shows where the satellite is in the earth's shadow,  

DLR